Location: Kelshall
(52.0000°N, 0.0500°W)
Time: 00:37:14
(UTC+00:00)

Meteor 1-15 Rocket - Pass Details

Date: 20 January 2021
Orbit: 840 x 907 km, 81.2° (Epoch: 03 March)

Event Time Altitude Azimuth Distance (km) Brightness Sun altitude
Exits shadow 04:10:10 31° 24° (NNE) 1,476 5.6 -34.2°
Drops below altitude 10° 04:13:02 10° 17° (NNE) 2,516 6.9 -33.8°
Sets 04:15:31 0° 15° (NNE) 3,468 7.7 -33.4°
